Location: Seattle
(47.6064°N, 122.3308°W)
Time: 04:49:43
(UTC-07:00)

ITUPSAT 1 - Pass Details

Date: 04 April 2023
Orbit: 697 x 710 km, 98.5° (Epoch: 29 May)

Event Time Altitude Azimuth Distance (km) Brightness Sun altitude
Rises 23:17:03 0° 6° (N) 3,121 ? -30.7°
Reaches altitude 10° 23:19:29 10° 358° (N) 2,195 ? -30.9°
Maximum altitude 23:23:46 34° 295° (WNW) 1,171 ? -31.3°
Enters shadow 23:24:16 33° 282° (WNW) 1,190 ? -31.4°
